[[{"header":{"parameterUnit":"m.s-1","parameterCategory":1,"la1":30.2991,"la2":30.254,"lo1":-89.0895,"lo2":-89.0444,"dy":0.0017,"dx":0.0017,"nx":28,"ny":28,"refTime":"2025-02-02T09:00:00:Z","depth":0,"parameterNumber":2,"parameterNumberName":"U-component_of_WINDS"},"data":[0,0,0,0,0,0,0,0,0,0,0,0,0,0,0,0,0,0,0,0,0,0,0,0,0,0,0,0,0,0,0,0,0,0,0,0,0,0,0,0,0,0,0,0,0,0,0,0,0,0,0,0,0,0,0,0,0,0,-1.1302,-1.1302,0,-1.1326,-1.1326,-1.1326,-1.1285,-1.1284,-1.1282,-1.1281,-1.1308,-1.131,-1.1312,0,0,0,0,0,0,0,0,0,0,0,0,0,-1.1225,-1.1226,-1.1302,-1.1302,-1.1302,-1.1326,-1.1326,-1.1326,-1.1285,-1.1284,-1.1282,-1.128,-1.1307,-1.1309,-1.1312,0,0,0,0,0,0,0,0,0,0,0,0,0,-1.1254,-1.1227,-1.1302,-1.1285,-1.1283,-1.1325,-1.1326,-1.1326,-1.1286,-1.1284,-1.1281,-1.128,-1.1306,-1.1309,-1.1312,-1.1372,0,0,-1.1321,-1.1323,0,0,0,0,0,0,0,0,-1.1253,-1.1257,-1.1287,-1.1286,-1.1285,-1.13,-1.1308,-1.1342,-1.1286,-1.1285,-1.1281,-1.1279,-1.1307,-1.131,-1.1319,-1.1374,-1.1375,-1.1321,-1.1323,-1.1325,-1.1325,0,0,0,0,0,0,0,-1.1251,-1.1256,-1.1311,-1.1287,-1.1286,-1.1277,-1.1279,-1.1315,-1.1307,-1.1285,-1.1282,-1.1285,-1.1306,-1.1316,-1.1319,-1.1375,-1.1321,-1.1324,-1.1326,-1.1327,-1.1484,-1.1487,0,0,0,0,0,0,-1.125,-1.1255,-1.131,-1.1312,-1.1263,-1.128,-1.1282,-1.1297,-1.1307,-1.1306,-1.1287,-1.1283,-1.1312,-1.1316,-1.132,-1.1393,-1.1325,-1.1327,-1.1329,-1.1482,-1.1485,-1.1487,0,0,0,0,0,0,-1.1249,-1.1256,-1.1309,-1.1283,-1.1289,-1.1284,-1.1301,-1.1299,-1.1309,-1.1308,-1.1307,-1.1298,-1.131,-1.1316,-1.136,-1.1394,-1.1329,-1.1332,-1.1479,-1.1483,-1.1486,-1.1539,0,0,0,0,0,0,-1.1247,-1.1255,-1.1277,-1.1283,-1.129,-1.1348,-1.1303,-1.1301,-1.1314,-1.1309,-1.1319,-1.1318,-1.1309,-1.1356,-1.1363,-1.1397,-1.1334,-1.1476,-1.1481,-1.1485,-1.1534,-1.1544,-1.1552,0,0,0,0,0,-1.1244,-1.1291,-1.1278,-1.1285,-1.1317,-1.135,-1.1354,-1.1342,-1.1317,-1.1339,-1.134,-1.1318,-1.1389,-1.1361,-1.1369,-1.1403,-1.1474,-1.1479,-1.1485,-1.153,-1.1542,-1.1552,0,0,0,0,0,0,-1.1289,-1.1291,-1.1277,-1.1327,-1.1339,-1.1343,-1.1371,-1.1354,-1.1374,-1.1369,-1.1353,-1.1356,-1.1404,-1.1408,-1.1377,-1.1464,-1.1427,-1.1435,-1.146,-1.1471,-1.148,-1.1478,-1.1336,0,0,0,0,0,-1.1305,-1.133,-1.1331,-1.1375,-1.1382,-1.1376,-1.139,-1.1379,-1.1391,-1.1396,-1.1399,-1.1412,-1.1437,-1.1454,-1.1477,-1.1535,-1.1538,-1.1563,-1.1572,-1.1579,-1.1586,-1.162,-1.1631,-1.1505,-1.1505,-1.1505,0,0,-1.1337,-1.1342,-1.1359,-1.1385,-1.1392,-1.1421,-1.138,-1.1411,-1.1432,-1.1401,-1.1443,-1.1446,-1.146,-1.1512,-1.1535,-1.1517,-1.1622,-1.1586,-1.1592,-1.1595,-1.1626,-1.1638,-1.1649,-1.1508,-1.1508,-1.1507,0,0,-1.1411,-1.1416,-1.1455,-1.1464,-1.1476,-1.1472,-1.1482,-1.1489,-1.149,-1.1532,-1.151,-1.1536,-1.1579,-1.1591,-1.1602,-1.1684,-1.1666,-1.1692,-1.1739,-1.1772,-1.1782,-1.1791,-1.1822,-1.1833,-1.1698,-1.1699,-1.1699,0,-1.145,-1.1491,-1.1477,-1.151,-1.1523,-1.1496,-1.1536,-1.1546,-1.1565,-1.1576,-1.1555,-1.161,-1.1617,-1.1673,-1.1693,-1.1703,-1.1715,-1.1691,-1.1781,-1.179,-1.1798,-1.1828,-1.1839,-1.1702,-1.1701,-1.1701,-1.1701,0,-1.1539,-1.1568,-1.1598,-1.1618,-1.1634,-1.1671,-1.1664,-1.1682,-1.1672,-1.1671,-1.1716,-1.1724,-1.175,-1.1762,-1.1751,-1.1817,-1.1806,-1.1784,-1.1746,-1.1814,-1.1841,-1.1852,-1.1706,-1.1705,-1.1704,-1.1703,0,0,-1.164,-1.1653,-1.1665,-1.1675,-1.1688,-1.171,-1.1747,-1.1772,-1.1789,-1.1804,-1.1836,-1.1875,-1.1855,-1.1868,-1.1859,-1.1888,-1.1955,-1.1863,-1.1863,-1.1881,-1.2031,-1.2048,-1.2061,-1.1943,-1.1945,-1.1947,-1.203,0,-1.1715,-1.1777,-1.1766,-1.1827,-1.1855,-1.1831,-1.1864,-1.1876,-1.1877,-1.1902,-1.1904,-1.1932,-1.1903,-1.1911,-1.1938,-1.1941,-1.1985,-1.1935,-1.1974,-1.1976,-1.1972,-1.2075,-1.2093,-1.2171,-1.2041,-1.2043,-1.2044,0,-1.1809,-1.1829,-1.1892,-1.1903,-1.1915,-1.1944,-1.1967,-1.1991,-1.2006,-1.2005,-1.2021,-1.2008,-1.2047,-1.2009,-1.2064,-1.203,-1.2046,-1.205,-1.2053,-1.2056,-1.2014,-1.2083,-1.2196,-1.2208,-1.206,-1.2059,-1.2058,0,-1.1878,-1.192,-1.1964,-1.1974,-1.1987,-1.2009,-1.2016,-1.2028,-1.2045,-1.2066,-1.2077,-1.2103,-1.2117,-1.2138,-1.2133,-1.2106,-1.219,-1.2151,-1.2191,-1.2192,-1.221,-1.2209,-1.2328,-1.2219,-1.2219,-1.2219,-1.2218,0,-1.1963,-1.2003,-1.1996,-1.2023,-1.2069,-1.2058,-1.2104,-1.2108,-1.212,-1.2149,-1.2131,-1.2159,-1.215,-1.2178,-1.2174,-1.2222,-1.2228,-1.223,-1.2228,-1.2232,-1.2232,-1.2242,-1.2237,-1.2222,-1.2221,-1.2221,-1.222,0,-1.2048,-1.2044,-1.2091,-1.2101,-1.2104,-1.2138,-1.2147,-1.2174,-1.2174,-1.2211,-1.222,-1.2221,-1.2253,-1.225,-1.2287,-1.2285,-1.2344,-1.2335,-1.2339,-1.2337,-1.2378,-1.2375,-1.2508,-1.2526,-1.2405,-1.2406,-1.2407,0,-1.2102,-1.2132,-1.2146,-1.2164,-1.2173,-1.2202,-1.2219,-1.2211,-1.223,-1.2251,-1.2276,-1.2307,-1.2331,-1.2385,-1.239,-1.2419,-1.2412,-1.2457,-1.2416,-1.2419,-1.2414,-1.2413,-1.2417,-1.2465,-1.2466,-1.2467,-1.2468,0,-1.2199,-1.2197,-1.2222,-1.2247,-1.2268,-1.2288,-1.2306,-1.2322,-1.2316,-1.2339,-1.2372,-1.2391,-1.2429,-1.2461,-1.2489,-1.2498,-1.2483,-1.2481,-1.2492,-1.2496,-1.2497,-1.2499,-1.2362,-1.2478,-1.2477,-1.2476,-1.2476,-1.2475,-1.2271,-1.2298,-1.2313,-1.2342,-1.2355,-1.2373,-1.2399,-1.2404,-1.2431,-1.2461,-1.2455,-1.2493,-1.2511,-1.2547,-1.2559,-1.259,-1.2574,-1.2589,-1.2593,-1.2598,-1.2603,-1.2492,-1.2595,-1.2594,-1.2594,-1.2594,-1.2594,0,-1.2369,-1.2378,-1.2405,-1.2431,-1.2455,-1.2439,-1.2458,-1.248,-1.2513,-1.253,-1.2555,-1.2595,-1.2627,-1.2635,-1.2666,-1.269,-1.2684,-1.2699,-1.2697,-1.27,-1.2615,-1.2603,-1.2703,-1.2703,-1.2703,-1.2703,-1.2703,-1.2703,-1.2423,-1.2468,-1.2468,-1.2521,-1.253,-1.2567,-1.258,-1.2597,-1.2611,-1.2656,-1.2683,-1.2688,-1.2703,-1.2735,-1.2764,-1.2766,-1.2779,-1.2797,-1.2796,-1.2717,-1.2706,-1.2695,-1.2684,-1.2799,-1.28,-1.2879,-1.288,-1.288]},{"header":{"parameterUnit":"m.s-1","parameterCategory":1,"la1":30.2991,"la2":30.254,"lo1":-89.0895,"lo2":-89.0444,"dy":0.0017,"dx":0.0017,"nx":28,"ny":28,"refTime":"2025-02-02T09:00:00:Z","depth":0,"parameterNumber":3,"parameterNumberName":"V-component_of_WINDS"},"data":[0,0,0,0,0,0,0,0,0,0,0,0,0,0,0,0,0,0,0,0,0,0,0,0,0,0,0,0,0,0,0,0,0,0,0,0,0,0,0,0,0,0,0,0,0,0,0,0,0,0,0,0,0,0,0,0,0,0,1.3381,1.3381,0,1.3418,1.3419,1.3419,1.3463,1.3464,1.3465,1.3465,1.3501,1.3502,1.3502,0,0,0,0,0,0,0,0,0,0,0,0,0,1.3346,1.3346,1.3381,1.3381,1.3382,1.3418,1.3419,1.3419,1.3463,1.3464,1.3465,1.3466,1.3501,1.3502,1.3502,0,0,0,0,0,0,0,0,0,0,0,0,0,1.337,1.3346,1.3381,1.3408,1.3411,1.3418,1.3419,1.3419,1.3463,1.3464,1.3465,1.3466,1.3501,1.3502,1.3502,1.3485,0,0,1.3504,1.3504,0,0,0,0,0,0,0,0,1.3368,1.3371,1.3404,1.3406,1.3409,1.3437,1.342,1.3441,1.3463,1.3443,1.3465,1.3467,1.3479,1.3481,1.3486,1.3486,1.3488,1.3504,1.3504,1.3504,1.3504,0,0,0,0,0,0,0,1.3367,1.337,1.3396,1.3404,1.3408,1.3418,1.3423,1.3424,1.3455,1.3445,1.3448,1.3452,1.3481,1.3486,1.3487,1.3488,1.3504,1.3504,1.3504,1.3505,1.3477,1.3476,0,0,0,0,0,0,1.3361,1.3368,1.3394,1.3397,1.3391,1.3418,1.3423,1.3427,1.3455,1.346,1.3451,1.3454,1.3484,1.3487,1.3489,1.347,1.3504,1.3505,1.3505,1.3478,1.3476,1.3475,0,0,0,0,0,0,1.336,1.3363,1.3393,1.3383,1.3388,1.3418,1.3422,1.3427,1.3432,1.346,1.3465,1.3451,1.3485,1.3488,1.3486,1.3472,1.3505,1.3505,1.3479,1.3477,1.3476,1.3432,0,0,0,0,0,0,1.3359,1.3363,1.3356,1.3383,1.3388,1.3389,1.3421,1.3427,1.3433,1.3437,1.3461,1.3465,1.3486,1.3485,1.3486,1.3473,1.3506,1.348,1.3478,1.3476,1.3435,1.343,1.3425,0,0,0,0,0,1.3358,1.3342,1.3356,1.3359,1.3381,1.3388,1.3391,1.3416,1.3432,1.3426,1.3444,1.3465,1.3474,1.3484,1.3486,1.3473,1.3481,1.3479,1.3476,1.3437,1.3431,1.3425,0,0,0,0,0,0,1.3312,1.3346,1.3362,1.3354,1.3368,1.3396,1.3389,1.3408,1.3417,1.3421,1.3451,1.3456,1.3449,1.3461,1.3472,1.3458,1.348,1.3478,1.345,1.3444,1.3439,1.3435,1.3506,0,0,0,0,0,1.3301,1.3305,1.3334,1.3325,1.3331,1.3359,1.3363,1.3381,1.3396,1.3402,1.342,1.3433,1.344,1.3443,1.345,1.3438,1.3443,1.343,1.3425,1.342,1.3418,1.3412,1.3407,1.3468,1.3468,1.3468,0,0,1.3278,1.3297,1.3297,1.3316,1.3329,1.3331,1.3363,1.3364,1.3366,1.3402,1.3401,1.3415,1.3432,1.3425,1.3422,1.3434,1.3402,1.3417,1.3414,1.3413,1.3409,1.3403,1.3398,1.3466,1.3466,1.3467,0,0,1.3238,1.3253,1.3247,1.326,1.328,1.3298,1.3297,1.3322,1.3333,1.3333,1.336,1.3362,1.3372,1.3383,1.339,1.3356,1.3375,1.3357,1.333,1.3324,1.3319,1.3315,1.3302,1.3297,1.3355,1.3355,1.3355,0,1.3207,1.3212,1.3241,1.3241,1.3248,1.3282,1.3276,1.3287,1.3307,1.3311,1.3325,1.3338,1.3352,1.3348,1.334,1.3345,1.3344,1.3354,1.3318,1.3314,1.331,1.3298,1.3294,1.3353,1.3353,1.3353,1.3353,0,1.3173,1.3176,1.3169,1.3189,1.3196,1.3192,1.322,1.3223,1.3242,1.3259,1.3258,1.3277,1.3288,1.3289,1.3306,1.3287,1.3294,1.3312,1.3335,1.3302,1.3291,1.3287,1.3349,1.335,1.3351,1.3351,0,0,1.3102,1.314,1.3136,1.3146,1.3172,1.3175,1.3173,1.3186,1.3187,1.3201,1.32,1.3208,1.3226,1.3234,1.3253,1.3248,1.3219,1.3267,1.3268,1.3257,1.3199,1.3184,1.3179,1.3233,1.3232,1.3232,1.3197,0,1.3065,1.3065,1.3092,1.3084,1.3088,1.3121,1.312,1.3135,1.3152,1.3157,1.3175,1.318,1.3203,1.3208,1.3205,1.3223,1.3208,1.3226,1.3231,1.3231,1.3225,1.3173,1.3157,1.3124,1.3193,1.3193,1.3192,0,1.3022,1.3034,1.3027,1.3053,1.3056,1.3054,1.3068,1.3073,1.3091,1.3103,1.3113,1.3135,1.3136,1.3159,1.3159,1.3171,1.3175,1.3184,1.3184,1.3184,1.3208,1.3171,1.3114,1.3108,1.3186,1.3187,1.3187,0,1.297,1.2985,1.2983,1.299,1.3021,1.3019,1.3032,1.3051,1.3057,1.307,1.3074,1.3085,1.3091,1.31,1.3124,1.3139,1.3122,1.3147,1.3131,1.313,1.3124,1.3124,1.3066,1.3129,1.3129,1.3129,1.3129,0,1.2925,1.2919,1.296,1.2958,1.2953,1.2984,1.2978,1.2994,1.3011,1.3012,1.3042,1.3043,1.3077,1.3081,1.3101,1.3098,1.3101,1.311,1.3115,1.3107,1.3105,1.3108,1.3111,1.3128,1.3128,1.3128,1.3129,0,1.2865,1.2893,1.2892,1.2923,1.293,1.2924,1.295,1.295,1.2969,1.2971,1.2973,1.3003,1.301,1.3037,1.305,1.3063,1.3053,1.3064,1.3047,1.305,1.3033,1.3033,1.2973,1.2967,1.3035,1.3034,1.3034,0,1.2834,1.2831,1.2861,1.2865,1.2877,1.2882,1.2889,1.292,1.2926,1.2947,1.2944,1.2954,1.2963,1.2973,1.2995,1.3006,1.3016,1.2995,1.3018,1.301,1.3015,1.3014,1.3014,1.2989,1.2988,1.2987,1.2987,0,1.2776,1.279,1.2799,1.2813,1.282,1.2832,1.2846,1.2847,1.2882,1.2887,1.2895,1.2903,1.2917,1.2926,1.2941,1.2953,1.2975,1.298,1.2976,1.2967,1.2957,1.2961,1.3032,1.298,1.2981,1.2981,1.2982,1.2982,1.2729,1.2727,1.2749,1.2758,1.2772,1.2785,1.2786,1.2806,1.2814,1.2828,1.2847,1.2853,1.2872,1.2894,1.2905,1.291,1.2922,1.2917,1.2916,1.2914,1.2909,1.2958,1.2912,1.2913,1.2913,1.2913,1.2913,0,1.2671,1.2687,1.2695,1.2714,1.2722,1.2744,1.2761,1.2765,1.277,1.2786,1.2796,1.2805,1.2815,1.2839,1.2851,1.285,1.286,1.2852,1.2851,1.2854,1.2898,1.29,1.2843,1.2843,1.2843,1.2843,1.2843,1.2843,1.2642,1.264,1.2657,1.2663,1.2679,1.2686,1.2694,1.2706,1.2719,1.2729,1.2737,1.2754,1.2773,1.2787,1.2796,1.2803,1.2805,1.2793,1.2803,1.2844,1.2851,1.2857,1.2858,1.2794,1.2794,1.2758,1.2758,1.2758]}]]